Siga o Apolo11 no Facebook   Siga o Apolo11 no Twiiter
Ciência, Espaço e Tecnologia




Elementos Keplerianos formato Two Line

Para que um programa de rastreio possa saber a localização exata de qualquer satélite no espaço e assim poder rastreá-lo corretamente, é necessário que ele seja carregado com algumas informações.

Estas informações são chamadas de Elementos Orbitais ou Elementos Keplerianos e consistem em 2 linhas com dezenas de números. Esses números nada mais são que os parâmetros orbitais do satélite, tais como altitude, atitude, excentricidade da órbita, número de órbitas por dia, etc.

Com base nestas informações o programa é capaz de determinar com bastante exatidão a posição de qualquer satélite no espaço e nos informar em qual horário este estará dentro do alcance de nossa estação. Para que isso seja feito com precisão é necessário que os dados estejam sempre bem atualizadas.

Devido aos parâmetros orbitais serem descritos em 2 linhas, estes formato é também conhecido internacionalmente por 2line (leia-se Two Line”).

Para atualizar seu programa de rastreio basta copiar os dados disponibilizados e fornece-los ao programa. Nossos elementos orbitais são atualizados diariamente.

NOAATodos os satélites ambientais da série NOAA
30 DiasSatélites lançados nos últimos 30 dias
ISSSatélites e foguetes relacionados à Estação Espacial Internacional
HAMSatélites construídos por radiomadores
CUBESatélites tipo cubo, com 10 centímetros de lado
METEOSatélites voltados à previsão do tempo
EDUSatélites construídos e operados por universidades
VIS100 satélites mais brilhantes que podem ser vistos a olho nú



Últimos Lançamentos
RESURS P1               
1 39186U 13030A   13198.18652153 -.00000077  00000-0  00000+0 0   712
2 39186  97.2787 270.6517 0011758 201.6248 243.2356 15.33472526  3301
SL-4 R/B                
1 39187U 13030B   13198.21314333  .00157296  98576-5  51093-3 0   450
2 39187  97.2948 271.8698 0135903 338.6184  20.9434 15.77305862  3384
O3B FM5                 
1 39188U 13031A   13194.57997480 -.00000016  00000-0  00000+0 0   127
2 39188   0.0345 349.4361 0001882 112.2864 258.2964  5.00110373   901
O3B FM4                 
1 39189U 13031B   13196.82862192 -.00000015  00000-0  10000-3 0   123
2 39189   0.0358 345.1152 0002223  37.5935 337.3007  5.00119625  1014
O3B FM2                 
1 39190U 13031C   13195.92910962 -.00000015  00000-0  10000-3 0    90
2 39190   0.0304 350.0133 0002193 115.3648 254.6451  5.00115131   968
O3B PFM                 
1 39191U 13031D   13196.07908873 -.00000015  00000-0  00000+0 0   147
2 39191   0.0338 346.2767 0001895 100.7763 272.9679  5.00116216   971
FREGAT R/B              
1 39192U 13031E   13196.04505763 -.00000012  00000-0  00000+0 0   121
2 39192   0.0963 120.6599 0010663   6.2544 233.1832  5.20986217  1006
COSMOS 2487             
1 39194U 13032A   13198.18271991 -.00000043  00000-0  00000+0 0   690
2 39194  74.7353 176.9288 0002498 250.5414 289.3637 15.22358541  2963
SL-27 R/B               
1 39195U 13032B   13197.55512422  .00002483  00000-0  10861-3 0   248
2 39195  74.7312 178.1769 0003861 238.2724 121.8105 15.22592938  2879
IRIS                    
1 39197U 13033A   13198.12831300  .00000812  00000-0  12452-3 0   246
2 39197  97.9007  25.6012 0029810 118.6919 241.7267 14.75993375  2806
PEGASUS R/B             
1 39198U 13033B   13197.57095339  .00000749  00000-0  11253-3 0   235
2 39198  97.9097  25.1110 0024644 116.7045 243.6695 14.77193620  2723
IRNSS-1A                
1 39199U 13034A   13197.03886772  .00000117  00000-0  10000-3 0   101
2 39199  27.0243 140.9316 0024790 181.4237  40.4033  1.00352183   347
PSLV R/B                
1 39200U 13034B   13193.05508725  .00002218  00000-0  47521-3 0   147
2 39200  17.8026 134.5410 6077269 193.5688 137.1140  3.92589341   387
2013-035A               
1 39202U 13035A   13198.15982930 -.00000047  00000-0  00000+0 0   124
2 39202  98.1452 351.2238 0050804 267.7104  91.8264 14.53724277   254
2013-035B               
1 39203U 13035B   13198.15366361 -.00000046  00000-0  00000+0 0   128
2 39203  98.1028 351.1778 0011113 208.4653 151.5942 14.59035929   255


IMAGENS DE SATÉLITES !    Clique e conheça nosso Vídeo Workshop de sensoriamento remoto e imagens meteorológicas.
Apolo11.com - Todos os direitos reservados - 2001 - 2018
Política de Privacidade

"O segredo em negócios é saber alguma coisa que mais ninguém sabe." - Aristóteles Onassis